Location: Complexul Astronomic Baia Mare
(47.6577°N, 23.5639°E)
Time: 01:48:37
(UTC+03:00)

ISS - Pass Details

Date: 27 May 2017
Orbit: 400 x 408 km, 51.6° (Epoch: 26 July)

Event Time Altitude Azimuth Distance (km) Brightness Sun altitude
Rises 23:13:53 0° 264° (W) 2,343 0.4 -15.1°
Reaches altitude 10° 23:16:01 10° 270° (W) 1,481 -0.6 -15.3°
Maximum altitude 23:19:16 49° 347° (NNW) 540 -2.8 -15.5°
Drops below altitude 10° 23:22:30 10° 64° (ENE) 1,479 -1.0 -15.8°
Enters shadow 23:27:13 -8° 73° (ENE) 3,392 0.8 -16.2°
